This is the latest recevied weather packets stored in our database for station/object KE8ZLU. If no packets are shown the sender has not sent any weather packets the latest 10 day(s).
| Time | Temp. | Humidity | Pressure | Rain* | Wind** | Luminosity | Snow |
|---|---|---|---|---|---|---|---|
| 1777635890 | 3.89° C | 88% | 1015.2 hPa | 0 mm | - | 37 W/m² | - |
| 1777635587 | 3.89° C | 95% | 1015.1 hPa | 0 mm | - | 32 W/m² | - |
| 1777635284 | 3.89° C | 96% | 1015.1 hPa | 0 mm | - | 27 W/m² | - |
| 1777634980 | 3.89° C | 96% | 1014.9 hPa | 0 mm | - | 22 W/m² | - |
| 1777634677 | 3.89° C | 96% | 1015 hPa | 0 mm | - | 18 W/m² | - |
| 1777634375 | 3.89° C | 96% | 1015 hPa | 0 mm | - | 14 W/m² | - |
| 1777634072 | 3.89° C | 96% | 1015 hPa | 0 mm | - | 11 W/m² | - |
| 1777633768 | 3.89° C | 96% | 1014.9 hPa | 0 mm | - | 9 W/m² | - |
| 1777633466 | 3.89° C | 96% | 1015 hPa | 0 mm | - | 8 W/m² | - |
| 1777633164 | 3.89° C | 96% | 1014.7 hPa | 0 mm | - | 5 W/m² | - |
| 1777632860 | 3.89° C | 96% | 1014.9 hPa | 0 mm | - | 3 W/m² | - |
| 1777632556 | 3.89° C | 96% | 1014.9 hPa | 0 mm | - | 2 W/m² | - |
| 1777632254 | 3.89° C | 96% | 1014.6 hPa | 0 mm | - | 2 W/m² | - |
| 1777631950 | 3.89° C | 96% | 1014.8 hPa | 0 mm | - | 1 W/m² | - |
| 1777631649 | 3.89° C | 96% | 1014.8 hPa | 0 mm | - | 1 W/m² | - |
| 1777631345 | 3.89° C | 96% | 1014.9 hPa | 0 mm | - | 0 W/m² | - |
| 1777631042 | 3.89° C | 95% | 1014.9 hPa | 0 mm | - | 0 W/m² | - |
| 1777630738 | 3.89° C | 95% | 1014.8 hPa | 0 mm | - | 0 W/m² | - |
| 1777630435 | 3.89° C | 95% | 1014.7 hPa | 0 mm | - | 0 W/m² | - |
| 1777630133 | 3.89° C | 95% | 1014.7 hPa | 0 mm | - | 0 W/m² | - |
| 1777629830 | 3.89° C | 95% | 1014.6 hPa | 0 mm | - | 0 W/m² | - |
| 1777629527 | 3.89° C | 95% | 1014.4 hPa | 0 mm | - | 0 W/m² | - |
| 1777629223 | 3.89° C | 95% | 1014.6 hPa | 0 mm | - | 0 W/m² | - |
| 1777628919 | 3.89° C | 95% | 1014.8 hPa | 0 mm | - | 0 W/m² | - |
| 1777628616 | 3.89° C | 95% | 1014.8 hPa | 0 mm | - | 0 W/m² | - |
* Rain latest hour (hover to see other rain measurements)
** Current wind speed in m/s (hover to see current wind gust speed)